[[{"header":{"parameterUnit":"m.s-1","parameterCategory":2,"la1":30.2991,"la2":30.254,"lo1":-89.0895,"lo2":-89.0444,"dy":0.0017,"dx":0.0017,"nx":28,"ny":28,"refTime":"2023-10-02T03:00:00:Z","depth":"0","parameterNumber":2,"parameterNumberName":"U-component_of_CURRENTS"},"data":[0,0,0,0,0,0,0,0,0,0,0,0,0,0,0,0,0,0,0,0,0,0,0,0,0,0,0,0,0,0,0,0,0,0,0,0,0,0,0,0,0,0,0,0,0,0,0,0,0,0,0,0,0,0,0,0,0,0,0.2795,0.2796,0,0.2862,0.2862,0.2862,0.2881,0.2881,0.2882,0.2882,0.2845,0.2844,0.2842,0,0,0,0,0,0,0,0,0,0,0,0,0,0.2642,0.2644,0.2795,0.2796,0.2798,0.2862,0.2862,0.2862,0.2881,0.2881,0.2882,0.2882,0.2845,0.2844,0.2842,0,0,0,0,0,0,0,0,0,0,0,0,0,0.2703,0.2645,0.2795,0.2819,0.2822,0.2861,0.2862,0.2862,0.2881,0.2881,0.2882,0.2882,0.2845,0.2844,0.2842,0.2827,0,0,0.2837,0.2836,0,0,0,0,0,0,0,0,0.27,0.2708,0.2814,0.2817,0.2821,0.2868,0.2795,0.2847,0.2881,0.2853,0.2882,0.2882,0.2846,0.2845,0.285,0.2825,0.2824,0.2837,0.2836,0.2835,0.2835,0,0,0,0,0,0,0,0.2695,0.2705,0.2816,0.2815,0.282,0.2812,0.2821,0.2805,0.2841,0.2855,0.2858,0.2875,0.2847,0.2852,0.2849,0.2823,0.2837,0.2835,0.2834,0.2834,0.2826,0.2827,0,0,0,0,0,0,0.2701,0.2702,0.2814,0.2818,0.2766,0.2816,0.2825,0.2848,0.2844,0.2846,0.2874,0.2875,0.2855,0.2851,0.2848,0.2872,0.2835,0.2833,0.2832,0.2825,0.2826,0.2827,0,0,0,0,0,0,0.2698,0.2711,0.2811,0.2765,0.2778,0.2819,0.2844,0.285,0.286,0.286,0.2859,0.288,0.2855,0.285,0.2849,0.2869,0.2833,0.2831,0.2824,0.2825,0.2826,0.2892,0,0,0,0,0,0,0.2693,0.2709,0.2719,0.2766,0.2781,0.2845,0.2845,0.2851,0.2872,0.2874,0.2865,0.2862,0.2854,0.2852,0.2847,0.2866,0.283,0.2823,0.2825,0.2826,0.2888,0.2895,0.29,0,0,0,0,0,0.2687,0.2706,0.2719,0.2732,0.2797,0.2847,0.2853,0.2878,0.2872,0.2884,0.288,0.2862,0.2858,0.2851,0.2846,0.2864,0.2822,0.2824,0.2826,0.2886,0.2894,0.29,0,0,0,0,0,0,0.2642,0.2712,0.2727,0.2765,0.2807,0.2852,0.2869,0.2878,0.2884,0.2882,0.2869,0.2866,0.2873,0.2856,0.2848,0.2866,0.2838,0.2839,0.2886,0.2893,0.2899,0.2902,0.2828,0,0,0,0,0,0.2638,0.2674,0.2734,0.2764,0.2789,0.2825,0.2844,0.2864,0.2883,0.2887,0.2885,0.2878,0.2876,0.2874,0.2869,0.2872,0.2876,0.2881,0.2888,0.2893,0.2892,0.2925,0.2934,0.2833,0.2833,0.2833,0,0,0.2628,0.2673,0.2691,0.2757,0.2792,0.2832,0.2836,0.2877,0.2902,0.2878,0.2902,0.2895,0.2881,0.2896,0.2897,0.2885,0.2926,0.2895,0.29,0.2896,0.2928,0.2938,0.2947,0.2834,0.2834,0.2834,0,0,0.2635,0.267,0.2705,0.2747,0.2809,0.2836,0.2848,0.2898,0.2913,0.2936,0.2928,0.2936,0.293,0.2936,0.2932,0.2963,0.2956,0.2959,0.2994,0.3026,0.3035,0.3043,0.3076,0.3086,0.2964,0.2964,0.2965,0,0.2616,0.2674,0.2719,0.2768,0.2801,0.2838,0.2876,0.2902,0.2941,0.2953,0.2951,0.2963,0.2952,0.2971,0.2988,0.2977,0.2995,0.297,0.3036,0.3043,0.305,0.3082,0.3092,0.2968,0.2967,0.2967,0.2967,0,0.2656,0.2701,0.2728,0.2802,0.2837,0.2879,0.293,0.296,0.2976,0.2997,0.3023,0.3022,0.3029,0.3032,0.3019,0.3061,0.3058,0.3041,0.3021,0.3065,0.3095,0.3105,0.2973,0.2971,0.297,0.297,0,0,0.2612,0.2732,0.2737,0.2774,0.2858,0.2888,0.2943,0.2994,0.3022,0.3054,0.3085,0.3096,0.3096,0.3092,0.3085,0.3113,0.3183,0.3102,0.3102,0.314,0.3264,0.3221,0.3227,0.3183,0.3185,0.3186,0.3272,0,0.2625,0.2709,0.2766,0.2828,0.2872,0.293,0.2973,0.302,0.3059,0.3099,0.3111,0.3135,0.3119,0.313,0.3157,0.3172,0.3208,0.3161,0.321,0.3211,0.3172,0.3237,0.3036,0.3091,0.3281,0.3283,0.3284,0,0.2636,0.2694,0.276,0.2846,0.2868,0.2908,0.2979,0.3026,0.3095,0.3123,0.3161,0.3176,0.322,0.3198,0.3265,0.3239,0.3258,0.3271,0.3274,0.3214,0.3185,0.3074,0.3101,0.3046,0.3298,0.3297,0.3296,0,0.2575,0.2678,0.2725,0.2759,0.2866,0.2899,0.2948,0.3026,0.3068,0.3145,0.3177,0.323,0.3255,0.3297,0.3332,0.3309,0.3405,0.3373,0.3355,0.3352,0.3178,0.3157,0.3156,0.3426,0.3425,0.3425,0.3425,0,0.2566,0.2598,0.2701,0.2733,0.2783,0.2861,0.2921,0.2984,0.3065,0.3113,0.3178,0.3226,0.3283,0.3342,0.3365,0.3399,0.3438,0.3376,0.3376,0.3196,0.3177,0.3116,0.3101,0.3428,0.3428,0.3427,0.3427,0,0.2502,0.2572,0.2632,0.2735,0.2766,0.28,0.291,0.2948,0.3035,0.3105,0.3131,0.3236,0.3324,0.3382,0.3459,0.3434,0.3376,0.3474,0.3264,0.3237,0.3141,0.3137,0.3032,0.2937,0.3463,0.3462,0.3462,0,0.248,0.2507,0.2617,0.2645,0.2696,0.2763,0.2808,0.2919,0.2961,0.311,0.3126,0.325,0.3322,0.3426,0.3404,0.3444,0.337,0.328,0.319,0.3126,0.3122,0.302,0.294,0.2993,0.2989,0.2985,0.2983,0,0.2438,0.2477,0.2528,0.2591,0.2641,0.2693,0.2763,0.2798,0.2923,0.2984,0.3083,0.3169,0.3274,0.323,0.3281,0.3269,0.3103,0.3211,0.3185,0.2795,0.2639,0.255,0.2966,0.2952,0.2955,0.2957,0.2959,0.296,0.2391,0.2407,0.2472,0.2509,0.2565,0.259,0.2586,0.2662,0.2718,0.276,0.293,0.2963,0.3025,0.3063,0.3057,0.2899,0.2926,0.2779,0.2796,0.2713,0.2556,0.2921,0.2882,0.2885,0.2887,0.2889,0.2891,0,0.2308,0.233,0.2378,0.2409,0.2405,0.2475,0.2513,0.2475,0.2476,0.2579,0.2625,0.2648,0.2624,0.2678,0.2602,0.2498,0.2347,0.2426,0.2219,0.2175,0.2527,0.2441,0.2253,0.2253,0.2253,0.2253,0.2253,0.2253,0.2268,0.2261,0.2275,0.2227,0.2238,0.2186,0.2172,0.2153,0.2186,0.2176,0.2174,0.2238,0.2413,0.2419,0.2328,0.2242,0.2086,0.194,0.2018,0.2263,0.2295,0.2327,0.2242,0.2016,0.2016,0.1495,0.1492,0.1489]},{"header":{"parameterUnit":"m.s-1","parameterCategory":2,"la1":30.2991,"la2":30.254,"lo1":-89.0895,"lo2":-89.0444,"dy":0.0017,"dx":0.0017,"nx":28,"ny":28,"refTime":"2023-10-02T03:00:00:Z","depth":"0","parameterNumber":3,"parameterNumberName":"V-component_of_CURRENTS"},"data":[0,0,0,0,0,0,0,0,0,0,0,0,0,0,0,0,0,0,0,0,0,0,0,0,0,0,0,0,0,0,0,0,0,0,0,0,0,0,0,0,0,0,0,0,0,0,0,0,0,0,0,0,0,0,0,0,0,0,-0.0157,-0.0158,0,-0.0284,-0.0286,-0.0288,-0.0358,-0.0358,-0.0358,-0.0358,-0.0476,-0.0479,-0.0482,0,0,0,0,0,0,0,0,0,0,0,0,0,-0.0069,-0.007,-0.0157,-0.0158,-0.016,-0.0284,-0.0286,-0.0288,-0.0358,-0.0358,-0.0358,-0.0358,-0.0475,-0.0478,-0.0482,0,0,0,0,0,0,0,0,0,0,0,0,0,-0.0145,-0.007,-0.0157,-0.0207,-0.0213,-0.0284,-0.0286,-0.0289,-0.0358,-0.0358,-0.0358,-0.0358,-0.0473,-0.0478,-0.0483,-0.0515,0,0,-0.0497,-0.05,0,0,0,0,0,0,0,0,-0.0141,-0.0149,-0.0199,-0.0204,-0.021,-0.0303,-0.0298,-0.0363,-0.0358,-0.0306,-0.0358,-0.0358,-0.0415,-0.0425,-0.0453,-0.052,-0.0525,-0.0498,-0.0501,-0.0503,-0.0504,0,0,0,0,0,0,0,-0.0135,-0.0144,-0.0211,-0.02,-0.0207,-0.0256,-0.0266,-0.0312,-0.0362,-0.0311,-0.0316,-0.0325,-0.0419,-0.0449,-0.0456,-0.0527,-0.0498,-0.0502,-0.0505,-0.0507,-0.0598,-0.0597,0,0,0,0,0,0,-0.0109,-0.0139,-0.0206,-0.0214,-0.0171,-0.0257,-0.0269,-0.0276,-0.0362,-0.0374,-0.0325,-0.0328,-0.044,-0.0451,-0.0461,-0.0486,-0.0503,-0.0507,-0.051,-0.0598,-0.0598,-0.0597,0,0,0,0,0,0,-0.0106,-0.0113,-0.0201,-0.0177,-0.0191,-0.0257,-0.0266,-0.0278,-0.0308,-0.0372,-0.0385,-0.0341,-0.0441,-0.0454,-0.0491,-0.0491,-0.0509,-0.0514,-0.0599,-0.0598,-0.0597,-0.0547,0,0,0,0,0,0,-0.0103,-0.0112,-0.011,-0.0175,-0.0191,-0.0243,-0.0266,-0.0281,-0.0312,-0.0317,-0.039,-0.0401,-0.0442,-0.0483,-0.0495,-0.0498,-0.0518,-0.0599,-0.0598,-0.0598,-0.055,-0.0545,-0.0541,0,0,0,0,0,-0.01,-0.0097,-0.0109,-0.0117,-0.0186,-0.0243,-0.0256,-0.0305,-0.0313,-0.033,-0.0366,-0.0399,-0.0486,-0.0487,-0.0501,-0.0506,-0.06,-0.0599,-0.0598,-0.0552,-0.0546,-0.0541,0,0,0,0,0,0,-0.0059,-0.0105,-0.012,-0.0131,-0.0181,-0.0253,-0.0268,-0.0301,-0.0346,-0.034,-0.04,-0.0414,-0.0443,-0.0479,-0.0478,-0.0527,-0.0546,-0.0548,-0.0506,-0.0501,-0.0497,-0.048,-0.0522,0,0,0,0,0,-0.0046,-0.0056,-0.0112,-0.0122,-0.0139,-0.0201,-0.0228,-0.0261,-0.0307,-0.0328,-0.0377,-0.0418,-0.0452,-0.0478,-0.0515,-0.0549,-0.0563,-0.0558,-0.0554,-0.055,-0.0545,-0.0566,-0.0563,-0.0594,-0.0594,-0.0594,0,0,-0.0033,-0.0059,-0.0064,-0.0114,-0.0151,-0.0177,-0.0218,-0.0251,-0.0273,-0.0332,-0.0369,-0.0406,-0.0455,-0.0488,-0.0505,-0.0519,-0.0544,-0.0549,-0.0545,-0.0542,-0.0565,-0.0562,-0.0559,-0.0593,-0.0593,-0.0593,0,0,-0.0013,-0.0031,-0.0034,-0.0069,-0.0116,-0.0155,-0.016,-0.0226,-0.0254,-0.0294,-0.0331,-0.0363,-0.0431,-0.0465,-0.049,-0.0484,-0.0516,-0.0497,-0.0473,-0.0493,-0.0491,-0.0489,-0.0482,-0.048,-0.0501,-0.0501,-0.05,0,0.0007,-0.0004,-0.0046,-0.0061,-0.0081,-0.0138,-0.0149,-0.0189,-0.026,-0.0274,-0.0293,-0.0373,-0.0418,-0.0451,-0.0451,-0.0476,-0.0483,-0.0489,-0.0487,-0.0486,-0.0485,-0.0479,-0.0477,-0.0498,-0.0498,-0.0499,-0.0499,0,0.0021,0.001,0.0006,-0.0025,-0.0057,-0.0073,-0.0127,-0.0155,-0.0186,-0.0226,-0.0264,-0.0325,-0.0369,-0.0392,-0.0425,-0.0442,-0.0446,-0.0475,-0.0499,-0.0479,-0.0473,-0.0473,-0.0494,-0.0495,-0.0496,-0.0497,0,0,0.008,0.0028,0.003,0.002,-0.0034,-0.0057,-0.0081,-0.0123,-0.0125,-0.0192,-0.0203,-0.0274,-0.0301,-0.033,-0.0376,-0.0406,-0.0405,-0.0437,-0.0439,-0.0426,-0.0429,-0.0403,-0.04,-0.0437,-0.0437,-0.0437,-0.042,0,0.0108,0.0098,0.006,0.005,0.004,-0.0013,-0.003,-0.0071,-0.0107,-0.0132,-0.0192,-0.022,-0.0279,-0.0294,-0.0332,-0.0385,-0.0404,-0.0405,-0.0453,-0.0454,-0.0432,-0.0399,-0.0357,-0.0337,-0.042,-0.042,-0.042,0,0.0143,0.0128,0.0128,0.0092,0.0087,0.0075,0.0052,0.0027,-0.0019,-0.0044,-0.0086,-0.0135,-0.0184,-0.0235,-0.0312,-0.031,-0.036,-0.0406,-0.0407,-0.0401,-0.0427,-0.0376,-0.0334,-0.0454,-0.0419,-0.0419,-0.0419,0,0.0212,0.018,0.0186,0.0172,0.0123,0.0123,0.0103,0.0063,0.0061,0.0019,0.0021,-0.0055,-0.0072,-0.016,-0.0253,-0.0283,-0.0325,-0.0378,-0.0399,-0.0397,-0.038,-0.0376,-0.0458,-0.0425,-0.0426,-0.0426,-0.0426,0,0.026,0.0264,0.0222,0.0224,0.0241,0.0187,0.0209,0.0177,0.0158,0.0183,0.008,0.0091,-0.0056,-0.0105,-0.0209,-0.028,-0.0286,-0.0378,-0.0391,-0.0358,-0.0353,-0.0473,-0.056,-0.0425,-0.0425,-0.0425,-0.0425,0,0.0332,0.0302,0.0308,0.0277,0.0272,0.0289,0.0282,0.0296,0.0269,0.0301,0.0295,0.0216,0.0161,0.0027,-0.0093,-0.0198,-0.035,-0.0315,-0.0249,-0.0255,-0.0404,-0.0489,-0.0579,-0.0652,-0.034,-0.034,-0.0339,0,0.0365,0.0375,0.0365,0.0377,0.0366,0.038,0.0392,0.0361,0.0387,0.0391,0.0421,0.0371,0.0372,0.0209,0.002,-0.0131,-0.0291,-0.0222,-0.0286,-0.039,-0.0496,-0.0562,-0.0624,-0.0235,-0.0234,-0.0232,-0.0231,0,0.0427,0.043,0.0438,0.0468,0.0484,0.0502,0.0524,0.0564,0.0554,0.0599,0.066,0.0666,0.0515,0.0373,0.0142,0.0022,-0.0308,-0.0203,-0.0338,-0.0436,-0.0486,-0.0568,-0.0255,-0.0221,-0.0222,-0.0223,-0.0223,-0.0224,0.0484,0.051,0.0527,0.0557,0.0582,0.0627,0.0663,0.0712,0.079,0.0862,0.0861,0.0904,0.0656,0.0356,0.0172,-0.0172,-0.0225,-0.0298,-0.0393,-0.0449,-0.0526,-0.0172,-0.0142,-0.0143,-0.0143,-0.0143,-0.0144,0,0.0544,0.0566,0.0605,0.0642,0.069,0.0681,0.0748,0.0799,0.0921,0.1007,0.1082,0.1013,0.0729,0.0391,-0.0067,-0.0323,-0.0448,-0.0479,-0.0582,-0.064,-0.0335,-0.0337,-0.0315,-0.0315,-0.0314,-0.0314,-0.0314,-0.0314,0.0572,0.0623,0.0637,0.0723,0.0756,0.0816,0.0859,0.0954,0.1033,0.1153,0.1196,0.1204,0.0969,0.0148,-0.0426,-0.0566,-0.0792,-0.0804,-0.0959,-0.0767,-0.0759,-0.075,-0.0773,-0.0842,-0.0843,-0.1214,-0.1218,-0.1221]}],[{"header":{"parameterUnit":"m.s-1","parameterCategory":2,"la1":30.2991,"la2":30.254,"lo1":-89.0895,"lo2":-89.0444,"dy":0.0017,"dx":0.0017,"nx":28,"ny":28,"refTime":"2023-10-02T03:00:00:Z","depth":"2","parameterNumber":2,"parameterNumberName":"U-component_of_CURRENTS"},"data":[0,0,0,0,0,0,0,0,0,0,0,0,0,0,0,0,0,0,0,0,0,0,0,0,0,0,0,0,0,0,0,0,0,0,0,0,0,0,0,0,0,0,0,0,0,0,0,0,0,0,0,0,0,0,0,0,0,0,0.2499,0.25,0,0.2531,0.2531,0.253,0.257,0.2572,0.2573,0.2574,0.2616,0.2615,0.2615,0,0,0,0,0,0,0,0,0,0,0,0,0,0.241,0.2411,0.2499,0.25,0.2501,0.2531,0.2531,0.253,0.257,0.2572,0.2573,0.2575,0.2616,0.2615,0.2615,0,0,0,0,0,0,0,0,0,0,0,0,0,0.2438,0.2411,0.2499,0.253,0.2534,0.2531,0.2531,0.253,0.257,0.2572,0.2574,0.2576,0.2616,0.2615,0.2615,0.2573,0,0,0.2614,0.2614,0,0,0,0,0,0,0,0,0.2437,0.2441,0.2524,0.2528,0.2532,0.2556,0.2515,0.2548,0.2569,0.2548,0.2574,0.2577,0.26,0.2601,0.2591,0.2575,0.2576,0.2614,0.2614,0.2614,0.2614,0,0,0,0,0,0,0,0.2435,0.2439,0.2503,0.2526,0.2531,0.2522,0.2528,0.252,0.2556,0.255,0.2555,0.257,0.2601,0.2591,0.2593,0.2577,0.2614,0.2614,0.2614,0.2614,0.2663,0.2664,0,0,0,0,0,0,0.2448,0.2438,0.2503,0.2505,0.2498,0.2523,0.2529,0.254,0.2556,0.2563,0.2569,0.2572,0.2591,0.2593,0.2594,0.2659,0.2614,0.2614,0.2614,0.2662,0.2663,0.2665,0,0,0,0,0,0,0.2446,0.2453,0.2501,0.2479,0.2485,0.2524,0.2534,0.2539,0.2573,0.2572,0.2577,0.2603,0.2592,0.2595,0.2631,0.2657,0.2614,0.2613,0.266,0.2662,0.2664,0.2716,0,0,0,0,0,0,0.2443,0.2452,0.247,0.2479,0.2488,0.2527,0.2533,0.2539,0.2581,0.2587,0.2602,0.2606,0.2594,0.2631,0.2631,0.2656,0.2613,0.2658,0.2661,0.2663,0.2712,0.2719,0.2726,0,0,0,0,0,0.2439,0.2466,0.247,0.2479,0.2509,0.2528,0.2531,0.2559,0.2581,0.2596,0.2618,0.2608,0.2648,0.2632,0.2631,0.2657,0.2657,0.266,0.2663,0.2709,0.2718,0.2726,0,0,0,0,0,0,0.2438,0.2473,0.2478,0.2514,0.253,0.2539,0.2556,0.2579,0.2604,0.2613,0.262,0.2624,0.2668,0.2656,0.2638,0.2681,0.2653,0.2656,0.2688,0.2696,0.2703,0.2722,0.2613,0,0,0,0,0,0.2443,0.2471,0.2494,0.252,0.2528,0.2545,0.2562,0.2578,0.26,0.2614,0.2646,0.2663,0.267,0.2681,0.2689,0.2704,0.2709,0.2723,0.273,0.2736,0.2752,0.2801,0.2814,0.2676,0.2676,0.2676,0,0,0.2444,0.2473,0.2485,0.2522,0.2528,0.2555,0.2559,0.2585,0.2621,0.2612,0.2684,0.2692,0.2682,0.2709,0.2726,0.2707,0.2772,0.274,0.2744,0.2758,0.2806,0.2819,0.2831,0.2678,0.2678,0.2677,0,0,0.2463,0.2484,0.2512,0.2527,0.2557,0.2573,0.2595,0.2631,0.2658,0.2709,0.2716,0.2752,0.2775,0.2778,0.2775,0.2823,0.2811,0.2824,0.2867,0.2914,0.2926,0.2936,0.2935,0.2945,0.2821,0.2821,0.2821,0,0.2465,0.2497,0.2521,0.2549,0.256,0.2594,0.2611,0.2645,0.2703,0.2724,0.2747,0.2802,0.2809,0.2823,0.285,0.284,0.285,0.2832,0.2923,0.2934,0.2944,0.294,0.2951,0.2824,0.2824,0.2824,0.2823,0,0.2488,0.2521,0.2534,0.2582,0.2605,0.2618,0.2662,0.2723,0.2772,0.2797,0.2852,0.2867,0.2896,0.2906,0.2896,0.2957,0.2934,0.293,0.2902,0.2961,0.2952,0.2963,0.2828,0.2827,0.2827,0.2826,0,0,0.2467,0.2535,0.2541,0.2561,0.261,0.2631,0.2704,0.2754,0.2816,0.2871,0.2928,0.2958,0.2971,0.2971,0.2964,0.3013,0.3091,0.3012,0.3013,0.3008,0.317,0.3058,0.3058,0.3109,0.3112,0.3114,0.3126,0,0.2468,0.252,0.2554,0.2603,0.2622,0.2672,0.2736,0.2794,0.2862,0.2942,0.2949,0.3002,0.2987,0.3014,0.3056,0.3096,0.3125,0.3086,0.3115,0.3116,0.3009,0.3069,0.2835,0.2819,0.3135,0.3137,0.3138,0,0.2466,0.2506,0.2541,0.261,0.2621,0.2669,0.2767,0.2832,0.2934,0.2984,0.3032,0.3049,0.3106,0.3103,0.3178,0.3156,0.3172,0.3196,0.3197,0.3087,0.3025,0.2817,0.2825,0.3155,0.3153,0.3152,0.3151,0,0.2423,0.2493,0.252,0.2535,0.2627,0.2668,0.2734,0.2843,0.2904,0.3025,0.3075,0.3125,0.3165,0.3213,0.3249,0.3232,0.3336,0.3305,0.3202,0.3192,0.2995,0.2963,0.3365,0.3365,0.3365,0.3365,0.3365,0,0.2396,0.2424,0.2511,0.2525,0.258,0.2651,0.2737,0.2831,0.2947,0.3009,0.3085,0.3125,0.321,0.3256,0.3278,0.3267,0.3348,0.3224,0.3203,0.3001,0.2971,0.3268,0.3257,0.3365,0.3365,0.3365,0.3365,0,0.2346,0.2394,0.2439,0.2531,0.2561,0.261,0.2732,0.2798,0.2927,0.3021,0.3057,0.3152,0.3203,0.3252,0.3336,0.3288,0.3308,0.3279,0.3013,0.296,0.3115,0.3106,0.3153,0.3149,0.3147,0.3144,0.3142,0,0.2321,0.2339,0.243,0.2452,0.2495,0.2579,0.2631,0.2778,0.2845,0.3012,0.303,0.3119,0.3112,0.3164,0.3159,0.3151,0.3234,0.2908,0.2832,0.3126,0.3101,0.3097,0.3093,0.2579,0.2572,0.2567,0.2562,0,0.2277,0.2314,0.2346,0.2404,0.2452,0.2505,0.2594,0.262,0.2787,0.2846,0.2907,0.2919,0.2978,0.2847,0.2856,0.2823,0.2892,0.2795,0.3203,0.2667,0.2585,0.2561,0.2575,0.2515,0.252,0.2523,0.2526,0.2528,0.2239,0.2247,0.2299,0.2327,0.2383,0.2396,0.2388,0.2456,0.2496,0.2528,0.2653,0.2598,0.2641,0.2499,0.2439,0.2421,0.2609,0.2484,0.2501,0.2523,0.2453,0.2371,0.2245,0.2248,0.225,0.2253,0.2255,0,0.2175,0.2188,0.2218,0.2236,0.2231,0.2317,0.2332,0.2271,0.2218,0.2277,0.2278,0.2083,0.1976,0.2048,0.1953,0.1952,0.1943,0.186,0.1831,0.188,0.1923,0.1823,0.1447,0.1445,0.1442,0.144,0,0,0.2149,0.213,0.2127,0.2071,0.2088,0.205,0.2017,0.1935,0.1927,0.1798,0.1768,0.1847,0.1965,0.1665,0.1638,0.1529,0.1687,0.1464,0.2116,0.2131,0.217,0.2291,0.2193,0,0,0,0,0]},{"header":{"parameterUnit":"m.s-1","parameterCategory":2,"la1":30.2991,"la2":30.254,"lo1":-89.0895,"lo2":-89.0444,"dy":0.0017,"dx":0.0017,"nx":28,"ny":28,"refTime":"2023-10-02T03:00:00:Z","depth":"2","parameterNumber":3,"parameterNumberName":"V-component_of_CURRENTS"},"data":[0,0,0,0,0,0,0,0,0,0,0,0,0,0,0,0,0,0,0,0,0,0,0,0,0,0,0,0,0,0,0,0,0,0,0,0,0,0,0,0,0,0,0,0,0,0,0,0,0,0,0,0,0,0,0,0,0,0,0.0129,0.0129,0,0.0144,0.0144,0.0145,0.0122,0.0122,0.0121,0.012,-0.0001,-0.0003,-0.0005,0,0,0,0,0,0,0,0,0,0,0,0,0,0.0105,0.0105,0.0129,0.0129,0.0129,0.0144,0.0144,0.0145,0.0123,0.0122,0.012,0.0119,-0.0,-0.0003,-0.0006,0,0,0,0,0,0,0,0,0,0,0,0,0,0.0118,0.0105,0.0129,0.0119,0.0118,0.0144,0.0144,0.0145,0.0123,0.0122,0.012,0.0119,0.0001,-0.0003,-0.0006,-0.0001,0,0,-0.0017,-0.0018,0,0,0,0,0,0,0,0,0.0118,0.0119,0.012,0.012,0.0119,0.0129,0.0092,0.0089,0.0123,0.0123,0.012,0.0118,0.003,0.0024,0.0034,-0.0006,-0.0011,-0.0017,-0.0019,-0.0021,-0.0022,0,0,0,0,0,0,0,0.0117,0.0119,0.0136,0.012,0.0119,0.0122,0.0122,0.0092,0.0082,0.0122,0.0121,0.012,0.0029,0.0038,0.003,-0.0013,-0.0017,-0.002,-0.0022,-0.0024,-0.0111,-0.0111,0,0,0,0,0,0,0.0112,0.0118,0.0136,0.0137,0.0113,0.0123,0.0123,0.0128,0.0085,0.0078,0.0122,0.0119,0.0044,0.0035,0.0026,-0.0014,-0.0021,-0.0024,-0.0026,-0.011,-0.0111,-0.0111,0,0,0,0,0,0,0.0112,0.0114,0.0135,0.0126,0.0129,0.0124,0.013,0.0129,0.012,0.0086,0.0076,0.0111,0.0043,0.0031,-0.0018,-0.0017,-0.0026,-0.0029,-0.011,-0.011,-0.0111,-0.0066,0,0,0,0,0,0,0.0111,0.0114,0.0116,0.0126,0.0129,0.0148,0.0131,0.013,0.0123,0.0119,0.0074,0.0063,0.0041,-0.0013,-0.0022,-0.0022,-0.0032,-0.011,-0.011,-0.0111,-0.0067,-0.0065,-0.0062,0,0,0,0,0,0.0111,0.0119,0.0116,0.0118,0.0132,0.0148,0.0151,0.0144,0.0123,0.0128,0.0086,0.0064,-0.0021,-0.0016,-0.0026,-0.0028,-0.011,-0.011,-0.0111,-0.0068,-0.0065,-0.0062,0,0,0,0,0,0,0.0115,0.0118,0.0115,0.0125,0.0134,0.0144,0.0152,0.0138,0.0114,0.0104,0.0058,0.0044,0.0007,-0.0021,-0.0014,-0.0054,-0.0068,-0.007,-0.0032,-0.0029,-0.0027,-0.0013,-0.0035,0,0,0,0,0,0.0116,0.0122,0.0127,0.0139,0.0144,0.0144,0.0147,0.0144,0.0126,0.0115,0.0072,0.0031,0.0004,-0.0024,-0.0049,-0.0079,-0.0097,-0.0087,-0.0084,-0.0082,-0.0078,-0.0115,-0.0116,-0.0112,-0.0112,-0.0112,0,0,0.0124,0.0125,0.013,0.014,0.0149,0.0162,0.0143,0.0155,0.0158,0.0103,0.0076,0.0037,-0.0002,-0.0026,-0.0046,-0.0056,-0.0088,-0.0083,-0.008,-0.0078,-0.0116,-0.0116,-0.0116,-0.0112,-0.0112,-0.0112,0,0,0.0148,0.0144,0.0159,0.0167,0.0177,0.0176,0.0173,0.0169,0.016,0.0132,0.0098,0.0051,0.0,-0.0024,-0.0042,-0.0047,-0.007,-0.0054,-0.0038,-0.0074,-0.0074,-0.0075,-0.0076,-0.0077,-0.0059,-0.0059,-0.0059,0,0.0156,0.0178,0.0167,0.0186,0.0202,0.0177,0.0206,0.0194,0.0167,0.0159,0.0124,0.0054,0.0005,-0.0011,-0.002,-0.0041,-0.0053,-0.0043,-0.007,-0.0071,-0.0072,-0.0074,-0.0076,-0.0057,-0.0057,-0.0057,-0.0057,0,0.0198,0.021,0.0224,0.0235,0.0248,0.0271,0.026,0.0246,0.0214,0.0193,0.0159,0.0096,0.0051,0.003,-0.0004,-0.0029,-0.0029,-0.0056,-0.0073,-0.007,-0.0072,-0.0074,-0.0054,-0.0054,-0.0055,-0.0056,0,0,0.0232,0.025,0.0254,0.0272,0.0283,0.0298,0.0302,0.0304,0.0297,0.0243,0.0234,0.0164,0.0116,0.0092,0.0048,0.0004,-0.0027,-0.0034,-0.0037,-0.0027,-0.0079,-0.0076,-0.0079,-0.0059,-0.006,-0.0061,-0.0067,0,0.0274,0.0317,0.0318,0.0357,0.0384,0.0373,0.0384,0.0374,0.0336,0.0306,0.0246,0.0207,0.0147,0.0118,0.0067,-0.0004,-0.0035,-0.002,-0.009,-0.0092,-0.0085,-0.0084,-0.0059,-0.0063,-0.007,-0.0071,-0.0071,0,0.0323,0.0344,0.0398,0.0429,0.0442,0.0451,0.0466,0.0473,0.0429,0.0397,0.0343,0.0284,0.0219,0.0158,0.0056,0.0069,-0.0002,-0.0057,-0.0059,-0.0076,-0.0096,-0.0074,-0.0068,-0.0076,-0.0076,-0.0075,-0.0075,0,0.0364,0.0401,0.0447,0.046,0.0485,0.0502,0.0511,0.0493,0.0503,0.0442,0.0423,0.0344,0.03,0.0201,0.0078,0.006,-0.0026,-0.0066,-0.0116,-0.0114,-0.0117,-0.0116,-0.0136,-0.0136,-0.0136,-0.0136,-0.0135,0,0.0417,0.0448,0.0461,0.0484,0.0539,0.0541,0.058,0.0567,0.055,0.0568,0.0466,0.0471,0.0301,0.023,0.0114,0.0004,0.0003,-0.0105,-0.0123,-0.0098,-0.0095,-0.0133,-0.0133,-0.0136,-0.0136,-0.0136,-0.0136,0,0.0461,0.047,0.0519,0.0547,0.056,0.0597,0.0633,0.0651,0.0623,0.064,0.0624,0.0553,0.0471,0.0321,0.017,0.006,-0.0053,-0.009,-0.0032,-0.0044,-0.0123,-0.012,-0.015,-0.015,-0.015,-0.015,-0.015,0,0.049,0.0518,0.0567,0.06,0.0612,0.0658,0.0698,0.0691,0.0718,0.0716,0.0742,0.066,0.0634,0.0429,0.0223,0.0038,-0.0009,-0.0071,-0.0121,-0.0113,-0.0127,-0.0124,-0.0122,-0.0094,-0.0093,-0.0093,-0.0093,0,0.0542,0.0556,0.0597,0.0659,0.0701,0.0762,0.0812,0.0846,0.0856,0.0881,0.0925,0.0902,0.0707,0.0524,0.0249,0.013,-0.0047,-0.0071,-0.0084,-0.0096,-0.0062,-0.0075,-0.0074,-0.009,-0.009,-0.009,-0.009,-0.0091,0.0582,0.0617,0.0659,0.0725,0.0778,0.0849,0.09,0.0962,0.1035,0.1053,0.1059,0.1012,0.0795,0.0447,0.0234,-0.0007,0.0001,-0.0106,-0.0107,-0.0107,-0.0103,-0.0071,-0.0097,-0.0097,-0.0097,-0.0098,-0.0098,0,0.0624,0.0656,0.0716,0.0785,0.0844,0.0864,0.0965,0.1008,0.1106,0.1128,0.1142,0.094,0.074,0.0487,0.0136,-0.0068,-0.0087,-0.0135,-0.0126,-0.0126,-0.0126,-0.0123,-0.0123,-0.0124,-0.0125,-0.0126,0,0,0.0642,0.0698,0.0722,0.0815,0.0864,0.0935,0.0992,0.1068,0.1108,0.1132,0.1101,0.1038,0.078,0.0511,0.0249,0.0049,0.0003,0.0018,0.0064,0.0107,0.0108,-0.0076,-0.0067,0,0,0,0,0]}],[{"header":{"parameterUnit":"m.s-1","parameterCategory":2,"la1":30.2991,"la2":30.254,"lo1":-89.0895,"lo2":-89.0444,"dy":0.0017,"dx":0.0017,"nx":28,"ny":28,"refTime":"2023-10-02T03:00:00:Z","depth":"4","parameterNumber":2,"parameterNumberName":"U-component_of_CURRENTS"},"data":[0,0,0,0,0,0,0,0,0,0,0,0,0,0,0,0,0,0,0,0,0,0,0,0,0,0,0,0,0,0,0,0,0,0,0,0,0,0,0,0,0,0,0,0,0,0,0,0,0,0,0,0,0,0,0,0,0,0,0.1292,0.1292,0,0.1295,0.1296,0.1296,0.1334,0.1334,0.1335,0.1335,0.1404,0.1405,0.1406,0,0,0,0,0,0,0,0,0,0,0,0,0,0.1363,0.1362,0.1292,0.1292,0.1291,0.1295,0.1296,0.1296,0.1334,0.1334,0.1335,0.1336,0.1403,0.1405,0.1406,0,0,0,0,0,0,0,0,0,0,0,0,0,0.1349,0.1361,0.1292,0.1308,0.1309,0.1295,0.1296,0.1296,0.1333,0.1334,0.1335,0.1336,0.1403,0.1405,0.1407,0.14,0,0,0.1412,0.1413,0,0,0,0,0,0,0,0,0.135,0.1347,0.1306,0.1307,0.1308,0.1312,0.1345,0.1333,0.1333,0.1328,0.1335,0.1337,0.1376,0.138,0.1383,0.1403,0.1406,0.1412,0.1414,0.1414,0.1415,0,0,0,0,0,0,0,0.1351,0.1347,0.1297,0.1305,0.1307,0.133,0.1329,0.1343,0.1351,0.1329,0.133,0.1324,0.1378,0.1381,0.1385,0.1407,0.1412,0.1414,0.1415,0.1416,0.1512,0.1514,0,0,0,0,0,0,0.1339,0.1348,0.1297,0.1297,0.1327,0.1327,0.1326,0.1313,0.135,0.1354,0.1324,0.1326,0.1377,0.1383,0.1388,0.1465,0.1414,0.1416,0.1417,0.1511,0.1513,0.1514,0,0,0,0,0,0,0.134,0.1334,0.1297,0.132,0.1317,0.1324,0.1309,0.1312,0.1344,0.1344,0.1352,0.1355,0.1378,0.1385,0.1426,0.1464,0.1417,0.1419,0.1509,0.1511,0.1513,0.1566,0,0,0,0,0,0,0.1342,0.1334,0.1344,0.1319,0.1315,0.1299,0.1308,0.1311,0.1335,0.1339,0.1373,0.1378,0.138,0.1423,0.1428,0.1466,0.142,0.1507,0.151,0.1513,0.1562,0.1569,0.1575,0,0,0,0,0,0.1345,0.1344,0.1345,0.134,0.132,0.1299,0.13,0.1312,0.1336,0.1346,0.1378,0.1379,0.1444,0.1426,0.1431,0.1471,0.1506,0.1509,0.1513,0.1559,0.1568,0.1575,0,0,0,0,0,0,0.1379,0.1347,0.1347,0.1338,0.1325,0.1304,0.1323,0.1328,0.1361,0.1386,0.1392,0.14,0.145,0.1452,0.1431,0.1506,0.1477,0.1482,0.1511,0.1519,0.1526,0.1518,0.1422,0,0,0,0,0,0.1388,0.1386,0.1352,0.135,0.1348,0.1344,0.1348,0.1354,0.1364,0.1381,0.1399,0.1431,0.1462,0.1484,0.1502,0.1541,0.1542,0.1572,0.1579,0.1584,0.1582,0.1608,0.1617,0.1525,0.1525,0.1525,0,0,0.1401,0.1385,0.1384,0.136,0.1359,0.1355,0.1351,0.1363,0.1378,0.1384,0.143,0.1454,0.1476,0.1521,0.1545,0.1532,0.1615,0.1588,0.1593,0.1587,0.1613,0.1622,0.1629,0.1527,0.1526,0.1526,0,0,0.1411,0.1412,0.1409,0.14,0.1395,0.1391,0.14,0.1394,0.1418,0.145,0.1469,0.1511,0.155,0.1571,0.1589,0.1643,0.1647,0.1662,0.1695,0.1722,0.1729,0.1736,0.1764,0.1773,0.1669,0.1669,0.167,0,0.1436,0.1415,0.1408,0.1399,0.1402,0.141,0.1411,0.1429,0.1442,0.1464,0.1476,0.1551,0.1571,0.1628,0.1653,0.1659,0.1676,0.1663,0.173,0.1736,0.1742,0.1769,0.1778,0.1672,0.1672,0.1672,0.1671,0,0.1419,0.1424,0.1426,0.1419,0.1424,0.143,0.1437,0.1464,0.15,0.1512,0.1579,0.161,0.1656,0.1676,0.1686,0.1747,0.1748,0.1732,0.1707,0.1754,0.178,0.1789,0.1677,0.1675,0.1675,0.1674,0,0,0.1422,0.1417,0.1421,0.1424,0.144,0.1433,0.1476,0.1498,0.1534,0.1573,0.162,0.1685,0.1713,0.1735,0.1761,0.1787,0.1853,0.1787,0.1787,0.1811,0.1924,0.1814,0.1812,0.1855,0.1856,0.1857,0.1931,0,0.1418,0.1406,0.1413,0.1425,0.1422,0.1452,0.1485,0.1518,0.1563,0.1609,0.1665,0.1722,0.1735,0.1779,0.181,0.1842,0.1875,0.1835,0.1877,0.1878,0.1771,0.1817,0.1862,0.1937,0.1939,0.194,0.1941,0,0.1395,0.139,0.1399,0.1423,0.1429,0.1452,0.151,0.154,0.1611,0.1649,0.1719,0.1762,0.1838,0.1831,0.1915,0.1895,0.1918,0.193,0.1933,0.1812,0.1782,0.1877,0.1956,0.1955,0.1954,0.1953,0.1952,0,0.137,0.1384,0.1396,0.14,0.1428,0.1463,0.1498,0.1563,0.16,0.169,0.1731,0.1815,0.188,0.1918,0.1969,0.1954,0.2038,0.2015,0.1936,0.193,0.1983,0.1975,0.206,0.206,0.206,0.206,0.206,0,0.1342,0.1352,0.1394,0.1387,0.1423,0.1461,0.1517,0.1559,0.164,0.1679,0.1766,0.1809,0.1906,0.1967,0.199,0.1993,0.2064,0.1946,0.1939,0.2006,0.2,0.199,0.1981,0.2063,0.2062,0.2062,0.2061,0,0.1307,0.1328,0.134,0.1385,0.1408,0.144,0.1518,0.1548,0.1638,0.1697,0.1733,0.1837,0.191,0.1985,0.2055,0.2015,0.2026,0.2008,0.2093,0.209,0.1896,0.189,0.192,0.1917,0.1914,0.1912,0.191,0,0.1281,0.1284,0.1335,0.1347,0.1376,0.1429,0.146,0.1543,0.1573,0.1688,0.1705,0.1819,0.1876,0.1889,0.1972,0.2014,0.1992,0.1988,0.1919,0.1891,0.1882,0.1879,0.1876,0.1905,0.1905,0.1904,0.1903,0,0.1235,0.1271,0.1281,0.1307,0.1342,0.1359,0.1414,0.1426,0.1514,0.1613,0.1634,0.1676,0.1756,0.1813,0.1869,0.1887,0.198,0.1958,0.1963,0.1898,0.1873,0.1866,0.1867,0.1893,0.1895,0.1896,0.1896,0,0.1219,0.1218,0.124,0.1254,0.1286,0.127,0.1305,0.133,0.1368,0.1495,0.1499,0.1613,0.1723,0.1748,0.1791,0.1813,0.1785,0.1721,0.1738,0.175,0.1661,0.1602,0.1536,0,0,0,0,0,0.1193,0.117,0.1176,0.1166,0.1194,0.121,0.1259,0.1296,0.1389,0.1365,0.1426,0.1484,0.1544,0.1609,0.1602,0.1736,0.1804,0.1721,0.1741,0.1839,0.185,0.1763,0,0,0,0,0,0,0.1166,0.1171,0.1149,0.1092,0.1077,0.1085,0.1113,0.1172,0.1162,0.1271,0.1313,0.1404,0.1493,0.1542,0.1578,0.1601,0.1585,0.1803,0.18,0.1833,0.1843,0.1852,0.1766,0,0,0,0,0]},{"header":{"parameterUnit":"m.s-1","parameterCategory":2,"la1":30.2991,"la2":30.254,"lo1":-89.0895,"lo2":-89.0444,"dy":0.0017,"dx":0.0017,"nx":28,"ny":28,"refTime":"2023-10-02T03:00:00:Z","depth":"4","parameterNumber":3,"parameterNumberName":"V-component_of_CURRENTS"},"data":[0,0,0,0,0,0,0,0,0,0,0,0,0,0,0,0,0,0,0,0,0,0,0,0,0,0,0,0,0,0,0,0,0,0,0,0,0,0,0,0,0,0,0,0,0,0,0,0,0,0,0,0,0,0,0,0,0,0,0.0241,0.0241,0,0.0262,0.0262,0.0262,0.0266,0.0266,0.0266,0.0266,0.0257,0.0257,0.0257,0,0,0,0,0,0,0,0,0,0,0,0,0,0.0182,0.0183,0.0241,0.0241,0.0242,0.0262,0.0262,0.0262,0.0266,0.0266,0.0266,0.0266,0.0257,0.0257,0.0257,0,0,0,0,0,0,0,0,0,0,0,0,0,0.0204,0.0183,0.0241,0.0247,0.0248,0.0262,0.0262,0.0262,0.0266,0.0266,0.0266,0.0266,0.0258,0.0257,0.0257,0.0255,0,0,0.0256,0.0256,0,0,0,0,0,0,0,0,0.0203,0.0206,0.0246,0.0247,0.0248,0.0263,0.0238,0.0259,0.0266,0.0258,0.0266,0.0266,0.0257,0.0257,0.0259,0.0255,0.0255,0.0256,0.0256,0.0256,0.0255,0,0,0,0,0,0,0,0.0201,0.0205,0.0248,0.0247,0.0248,0.0241,0.0245,0.0242,0.0256,0.0259,0.026,0.0264,0.0257,0.026,0.0259,0.0254,0.0256,0.0256,0.0255,0.0255,0.0253,0.0253,0,0,0,0,0,0,0.0203,0.0204,0.0247,0.0248,0.0227,0.0243,0.0246,0.0257,0.0257,0.0257,0.0264,0.0264,0.026,0.026,0.0259,0.0272,0.0256,0.0255,0.0255,0.0253,0.0253,0.0253,0,0,0,0,0,0,0.0202,0.0207,0.0246,0.0227,0.0232,0.0244,0.0256,0.0257,0.0267,0.0261,0.0261,0.0273,0.026,0.0259,0.0268,0.0271,0.0255,0.0255,0.0253,0.0253,0.0253,0.0288,0,0,0,0,0,0,0.02,0.0207,0.0218,0.0228,0.0233,0.0264,0.0256,0.0258,0.027,0.027,0.0269,0.0267,0.026,0.0269,0.0268,0.027,0.0255,0.0253,0.0253,0.0253,0.0287,0.0289,0.0292,0,0,0,0,0,0.0198,0.0215,0.0219,0.0224,0.0248,0.0265,0.0267,0.0274,0.027,0.0281,0.028,0.0268,0.0269,0.0269,0.0268,0.027,0.0253,0.0253,0.0253,0.0285,0.0289,0.0292,0,0,0,0,0,0,0.0198,0.0217,0.0221,0.0244,0.0258,0.0266,0.0277,0.0279,0.0286,0.0286,0.0277,0.0276,0.0282,0.0272,0.0272,0.0269,0.0256,0.0256,0.0281,0.0284,0.0286,0.0299,0.0254,0,0,0,0,0,0.0203,0.022,0.0235,0.0255,0.0261,0.0269,0.0278,0.0283,0.029,0.0293,0.0294,0.0288,0.0281,0.0281,0.0276,0.028,0.0259,0.0277,0.028,0.0282,0.0291,0.0266,0.0267,0.0255,0.0255,0.0255,0,0,0.0208,0.0221,0.0232,0.0256,0.0265,0.0285,0.0274,0.0292,0.0311,0.029,0.0316,0.0301,0.0284,0.0288,0.0289,0.0282,0.0271,0.0282,0.0285,0.0293,0.0266,0.0267,0.0268,0.0255,0.0255,0.0255,0,0,0.0229,0.024,0.0261,0.0274,0.0294,0.03,0.0307,0.0323,0.0331,0.035,0.0334,0.0326,0.0326,0.0313,0.0304,0.0317,0.0286,0.0309,0.0334,0.0309,0.031,0.031,0.0273,0.027,0.031,0.031,0.031,0,0.0236,0.0267,0.027,0.0294,0.031,0.0309,0.0336,0.0345,0.0364,0.0371,0.0365,0.0351,0.0337,0.0329,0.0333,0.0323,0.03,0.0325,0.0313,0.0313,0.0313,0.0274,0.027,0.0312,0.0311,0.0311,0.0311,0,0.0271,0.0298,0.0311,0.0342,0.0358,0.038,0.0393,0.0411,0.0416,0.0419,0.0419,0.0397,0.0387,0.0374,0.036,0.0349,0.0328,0.0319,0.0307,0.0316,0.0274,0.027,0.0314,0.0313,0.0313,0.0313,0,0,0.0286,0.0327,0.0335,0.0359,0.0386,0.0404,0.0434,0.0458,0.0477,0.0474,0.0487,0.0463,0.0441,0.0429,0.04,0.0377,0.035,0.0353,0.0351,0.0319,0.0284,0.0255,0.0247,0.0338,0.0338,0.0337,0.025,0,0.0317,0.0368,0.0381,0.0433,0.0461,0.0471,0.0502,0.052,0.0524,0.0536,0.0499,0.0497,0.0464,0.0454,0.0426,0.0373,0.0342,0.0374,0.0277,0.0274,0.025,0.0242,0.0337,0.0246,0.0245,0.0244,0.0244,0,0.0353,0.0383,0.0437,0.0486,0.05,0.0529,0.0571,0.0598,0.0604,0.0606,0.0586,0.0553,0.0517,0.0488,0.04,0.0421,0.036,0.0313,0.0308,0.027,0.0238,0.0237,0.0235,0.0236,0.0237,0.0237,0.0238,0,0.0369,0.0426,0.047,0.0487,0.0538,0.0568,0.0597,0.062,0.0648,0.0645,0.0652,0.0598,0.0574,0.0496,0.0396,0.0398,0.0292,0.028,0.0191,0.0187,0.0225,0.0225,0.0217,0.0217,0.0218,0.0218,0.0218,0,0.0398,0.0437,0.0485,0.051,0.0571,0.0595,0.065,0.0675,0.07,0.0725,0.0685,0.0677,0.0577,0.0501,0.0407,0.0282,0.0296,0.0194,0.0166,0.0239,0.0242,0.022,0.0222,0.0215,0.0215,0.0216,0.0217,0,0.0414,0.0443,0.0499,0.0557,0.0583,0.0627,0.0696,0.073,0.0753,0.0782,0.0782,0.0735,0.0635,0.0518,0.0383,0.0298,0.0181,0.0132,0.0211,0.0188,0.0088,0.0092,0.0025,0.0023,0.0022,0.002,0.0019,0,0.0426,0.0456,0.0532,0.0569,0.06,0.0665,0.0713,0.0759,0.079,0.0809,0.0818,0.0742,0.0687,0.0472,0.0353,0.0162,0.0135,0.0069,0.0087,0.009,0.007,0.0076,0.0082,0.0017,0.0017,0.0016,0.0016,0,0.0446,0.0473,0.0517,0.059,0.0648,0.0713,0.0777,0.0802,0.0845,0.0866,0.0832,0.073,0.0614,0.0457,0.0309,0.0175,0.0111,0.0054,0.0056,0.0072,0.008,0.0063,0.007,0.0011,0.0012,0.0012,0.0013,0,0.046,0.0488,0.0541,0.0606,0.0676,0.0735,0.0773,0.0803,0.0836,0.0852,0.0834,0.0723,0.0666,0.0463,0.0328,0.0192,0.0157,0.011,0.0109,0.0112,0.0166,0.0191,0.0131,0,0,0,0,0,0.0471,0.0497,0.0552,0.0617,0.0683,0.0726,0.0803,0.0832,0.0866,0.0842,0.0841,0.073,0.0535,0.0459,0.0315,0.0294,0.013,0.012,0.0075,-0.0016,-0.0011,0.0035,0,0,0,0,0,0,0.0474,0.0523,0.0543,0.0608,0.0651,0.0725,0.0775,0.0806,0.0791,0.0807,0.0705,0.0677,0.0488,0.0608,0.0304,0.0267,0.0214,0.004,0.0036,-0.002,-0.0014,-0.001,0.0039,0,0,0,0,0]}]]